Monroe, MI

8:57 AM EDT on March 30, 2017 (GMT -0400)
Custer

Weather History for KTTF - April, 2014

Change the Weather History Date:

Tuesday, April 15, 2014

  Actual Average Record
Temperature  
Mean Temperature 30 °F -  
Max Temperature 35 °F 58 °F 84 °F (1941)
Min Temperature 26 °F 39 °F 20 °F (1935)
Degree Days  
Heating Degree Days 34    
Moisture  
Dew Point 20 °F    
Average Humidity 69    
Maximum Humidity 100    
Minimum Humidity 41    
Precipitation  
Precipitation 0.00 in - - ()
Sea Level Pressure  
Sea Level Pressure 29.97 in    
Wind  
Wind Speed 13 mph (NW)    
Max Wind Speed 21 mph    
Max Gust Speed 28 mph    
Visibility 8 miles    
Events Snow    
Averages and records for this station are not official NWS values.
T = Trace of Precipitation, MM = Missing Value Source: NWS Daily Summary

Daily Weather History Graph

Daily Weather History Graph

Search for Another Location

Airport or City:

Trip Planner

Search our weather history database for the weather conditions in past years. The results will help you decide how hot, cold, wet, or windy it might be!

Date:

Astronomy

Apr. 15, 2014 Rise Set
Actual Time 6:53 AM EDT 8:14 PM EDT
Civil Twilight 6:24 AM EDT 8:43 PM EDT
Nautical Twilight 5:49 AM EDT 9:18 PM EDT
Astronomical Twilight 5:12 AM EDT 9:55 PM EDT
Moon 8:55 PM EDT (4/15) 7:00 AM EDT (4/15)
Length of Visible Light 14h 19m
Length of Day
13h 21m
Full, 100% of the Moon is Illuminated
Apr 15
Full
Apr 22
Last Quarter
Apr 29
New
May 6
First Quarter
May 14
Full

Hourly Weather History & Observations

Time (EDT) Temp. Windchill Dew Point Humidity Pressure Visibility Wind Dir Wind Speed Gust Speed Precip Events Conditions
12:13 AM 33.8 °F 23.2 °F 32.0 °F 93% 29.77 in 2.5 mi NNW 17.3 mph - N/A Snow Light Snow
12:33 AM 33.8 °F 23.9 °F 32.0 °F 93% 29.78 in 1.8 mi NNW 15.0 mph 21.9 mph N/A Snow Light Snow
12:53 AM 33.8 °F 24.3 °F 30.2 °F 87% 29.78 in 1.5 mi NNW 13.8 mph 19.6 mph N/A Snow Light Snow
1:13 AM 32.0 °F 22.1 °F 30.2 °F 93% 29.78 in 1.8 mi NNW 13.8 mph 26.5 mph N/A Snow Light Snow
1:33 AM 30.2 °F 20.8 °F 28.4 °F 93% 29.79 in 0.8 mi North 11.5 mph 24.2 mph N/A Snow Light Snow
1:53 AM 30.2 °F 20.2 °F 28.4 °F 93% 29.78 in 1.2 mi NNW 12.7 mph 24.2 mph N/A Snow Light Snow
2:14 AM 30.2 °F 20.2 °F 28.4 °F 93% 29.78 in 1.0 mi NNW 12.7 mph 18.4 mph N/A Snow Light Snow
2:34 AM 30.2 °F 19.8 °F 28.4 °F 93% 29.77 in 0.5 mi North 13.8 mph 19.6 mph N/A Snow Snow
2:54 AM 28.4 °F 20.4 °F 28.4 °F 100% 29.78 in 0.8 mi NNW 8.1 mph - N/A Snow Snow
3:14 AM 28.4 °F 20.4 °F 28.4 °F 100% 29.81 in 1.0 mi NW 8.1 mph - N/A Snow Snow
3:34 AM 28.4 °F 19.1 °F 28.4 °F 100% 29.79 in 0.2 mi NW 10.4 mph - N/A Snow Snow
3:56 AM 28.4 °F 18.5 °F 26.6 °F 93% 29.79 in 1.2 mi NW 11.5 mph - N/A Snow Snow
4:14 AM 28.4 °F 17.0 °F 26.6 °F 93% 29.80 in 2.5 mi NNW 15.0 mph 18.4 mph N/A Snow Light Snow
4:34 AM 28.4 °F 21.2 °F 26.6 °F 93% 29.83 in 5.0 mi WNW 6.9 mph - N/A Snow Light Snow
4:54 AM 28.4 °F 19.7 °F 26.6 °F 93% 29.81 in 3.0 mi NW 9.2 mph 18.4 mph N/A Snow Light Snow
5:14 AM 28.4 °F 18.5 °F 24.8 °F 86% 29.80 in 7.0 mi NW 11.5 mph - N/A Snow Light Snow
5:34 AM 26.6 °F 15.7 °F 24.8 °F 93% 29.81 in 10.0 mi NW 12.7 mph 17.3 mph N/A Snow Light Snow
5:54 AM 26.6 °F 15.7 °F 24.8 °F 93% 29.85 in 10.0 mi WNW 12.7 mph 18.4 mph N/A   Overcast
6:14 AM 26.6 °F 14.7 °F 23.0 °F 86% 29.83 in 10.0 mi NW 15.0 mph 20.7 mph N/A   Overcast
6:34 AM 26.6 °F 15.2 °F 23.0 °F 86% 29.84 in 10.0 mi WNW 13.8 mph 18.4 mph N/A   Overcast
6:54 AM 26.6 °F 14.3 °F 21.2 °F 80% 29.83 in 10.0 mi NW 16.1 mph 20.7 mph N/A   Overcast
7:15 AM 26.6 °F 16.8 °F 21.2 °F 80% 29.85 in 10.0 mi NW 10.4 mph 19.6 mph N/A   Overcast
7:35 AM 26.6 °F 16.2 °F 21.2 °F 80% 29.88 in 10.0 mi NW 11.5 mph 26.5 mph N/A   Overcast
7:55 AM 26.6 °F 14.3 °F 21.2 °F 80% 29.87 in 10.0 mi NW 16.1 mph 24.2 mph N/A   Overcast
8:15 AM 26.6 °F 13.8 °F 21.2 °F 80% 29.90 in 10.0 mi WNW 17.3 mph 21.9 mph N/A   Overcast
8:35 AM 26.6 °F 13.4 °F 19.4 °F 74% 29.90 in 10.0 mi NW 18.4 mph 25.3 mph N/A   Overcast
8:55 AM 26.6 °F 15.2 °F 19.4 °F 74% 29.91 in 10.0 mi NW 13.8 mph 25.3 mph N/A   Overcast
9:15 AM 26.6 °F 13.4 °F 19.4 °F 74% 29.92 in 10.0 mi WNW 18.4 mph 25.3 mph N/A   Overcast
9:35 AM 26.6 °F 13.4 °F 19.4 °F 74% 29.92 in 10.0 mi NW 18.4 mph 23.0 mph N/A   Overcast
9:55 AM 26.6 °F 13.8 °F 19.4 °F 74% 29.94 in 10.0 mi NW 17.3 mph 23.0 mph N/A   Overcast
10:15 AM 26.6 °F 14.3 °F 17.6 °F 69% 29.94 in 10.0 mi NW 16.1 mph 25.3 mph N/A   Overcast
10:36 AM 26.6 °F 16.2 °F 17.6 °F 69% 29.94 in 10.0 mi WNW 11.5 mph 15.0 mph N/A   Overcast
10:56 AM 26.6 °F 15.2 °F 17.6 °F 69% 29.96 in 10.0 mi NW 13.8 mph 21.9 mph N/A   Overcast
11:16 AM 28.4 °F 19.1 °F 17.6 °F 64% 29.97 in 10.0 mi NW 10.4 mph 21.9 mph N/A   Overcast
11:36 AM 28.4 °F 15.1 °F 17.6 °F 64% 29.97 in 10.0 mi NNW 20.7 mph 26.5 mph N/A   Overcast
11:56 AM 28.4 °F 16.6 °F 19.4 °F 69% 29.98 in 5.0 mi WNW 16.1 mph 21.9 mph N/A   Haze
12:16 PM 28.4 °F 17.5 °F 19.4 °F 69% 29.98 in 10.0 mi WNW 13.8 mph - N/A   Overcast
12:56 PM 30.2 °F 19.3 °F 17.6 °F 60% 29.99 in 10.0 mi NNW 15.0 mph 20.7 mph N/A   Mostly Cloudy
1:36 PM 30.2 °F 20.2 °F 15.8 °F 55% 30.00 in 10.0 mi WNW 12.7 mph 23.0 mph N/A   Overcast
1:57 PM 30.2 °F 20.2 °F 15.8 °F 55% 30.01 in 10.0 mi NW 12.7 mph - N/A   Overcast
2:12 PM 30.2 °F 18.5 °F 17.6 °F 60% 30.02 in 10.0 mi WNW 17.3 mph - N/A   Overcast
2:32 PM 32.0 °F 21.6 °F 17.6 °F 55% 30.03 in 10.0 mi NW 15.0 mph 20.7 mph N/A Snow Light Snow
2:52 PM 30.2 °F 18.5 °F 21.2 °F 69% 30.03 in 10.0 mi West 17.3 mph 21.9 mph N/A   Overcast
3:12 PM 30.2 °F 19.3 °F 21.2 °F 69% 30.04 in 10.0 mi WNW 15.0 mph 20.7 mph N/A   Overcast
3:32 PM 32.0 °F 22.5 °F 17.6 °F 55% 30.04 in 10.0 mi WNW 12.7 mph 19.6 mph N/A   Overcast
3:52 PM 32.0 °F 22.5 °F 19.4 °F 60% 30.04 in 10.0 mi NW 12.7 mph 23.0 mph N/A   Mostly Cloudy
4:12 PM 32.0 °F 21.6 °F 17.6 °F 55% 30.04 in 10.0 mi NW 15.0 mph 20.7 mph N/A   Overcast
4:32 PM 33.8 °F 22.2 °F 19.4 °F 56% 30.04 in 10.0 mi West 20.7 mph 27.6 mph N/A   Mostly Cloudy
4:52 PM 33.8 °F 22.8 °F 15.8 °F 48% 30.05 in 10.0 mi NW 18.4 mph 24.2 mph N/A   Overcast
5:13 PM 33.8 °F 24.3 °F 15.8 °F 48% 30.05 in 10.0 mi NW 13.8 mph 20.7 mph N/A   Overcast
5:33 PM 33.8 °F 25.3 °F 17.6 °F 52% 30.06 in 10.0 mi NW 11.5 mph 18.4 mph N/A   Overcast
5:53 PM 35.6 °F 27.5 °F 15.8 °F 44% 30.07 in 10.0 mi NW 11.5 mph 17.3 mph N/A   Overcast
6:13 PM 35.6 °F 26.6 °F 15.8 °F 44% 30.08 in 10.0 mi NW 13.8 mph 20.7 mph N/A   Overcast
6:33 PM 33.8 °F 24.8 °F 14.0 °F 44% 30.09 in 10.0 mi WNW 12.7 mph 25.3 mph N/A   Overcast
6:53 PM 33.8 °F 24.8 °F 12.2 °F 41% 30.10 in 10.0 mi NW 12.7 mph - N/A   Overcast
7:13 PM 33.8 °F 25.3 °F 12.2 °F 41% 30.11 in 10.0 mi WNW 11.5 mph 19.6 mph N/A   Scattered Clouds
7:33 PM 33.8 °F 24.8 °F 12.2 °F 41% 30.12 in 10.0 mi NW 12.7 mph - N/A   Mostly Cloudy
7:53 PM 32.0 °F 24.2 °F 14.0 °F 48% 30.13 in 10.0 mi WNW 9.2 mph - N/A   Mostly Cloudy
8:13 PM 32.0 °F 23.6 °F 12.2 °F 44% 30.14 in 10.0 mi NW 10.4 mph - N/A   Mostly Cloudy
8:34 PM 30.2 °F 21.3 °F 12.2 °F 47% 30.14 in 10.0 mi NW 10.4 mph - N/A   Scattered Clouds
8:54 PM 30.2 °F 24.3 °F 14.0 °F 51% 30.16 in 10.0 mi NW 5.8 mph - N/A   Clear
9:14 PM 30.2 °F 24.3 °F 12.2 °F 47% 30.18 in 10.0 mi NW 5.8 mph - N/A   Clear
9:34 PM 30.2 °F 26.7 °F 15.8 °F 55% 30.19 in 10.0 mi NW 3.5 mph - N/A   Clear
9:54 PM 28.4 °F - 15.8 °F 59% 30.19 in 10.0 mi Calm Calm - N/A   Clear
10:14 PM 28.4 °F - 14.0 °F 55% 30.21 in 10.0 mi Calm Calm - N/A   Clear
10:34 PM 28.4 °F - 14.0 °F 55% 30.22 in 10.0 mi Calm Calm - N/A   Clear
10:54 PM 28.4 °F - 15.8 °F 59% 30.22 in 10.0 mi Calm Calm - N/A   Clear
11:14 PM 28.4 °F - 15.8 °F 59% 30.23 in 10.0 mi Calm Calm - N/A   Clear
11:34 PM 28.4 °F - 17.6 °F 64% 30.23 in 10.0 mi Calm Calm - N/A   Clear
11:55 PM 26.6 °F - 17.6 °F 69% 30.23 in 10.0 mi Calm Calm - N/A   Clear